Hourly Weather Bolshie Lopatki

Today, 20 June, Sunday

Time Temperature Precipitation Wind Pressure Humidity
00:00 +18°C° 0 mm 1 mps 748 mmHg 93%
01:00 +18°C° 0 mm 1 mps 748 mmHg 94%
02:00 +18°C° 0 mm 1 mps 748 mmHg 95%
03:00 +19°C° 0 mm 1 mps 748 mmHg 93%
04:00 +19°C° 0 mm 1 mps 748 mmHg 92%
05:00 +20°C° 0 mm 1 mps 748 mmHg 90%
06:00 +22°C° 0 mm 1 mps 748 mmHg 82%
07:00 +24°C° 0 mm 1 mps 748 mmHg 75%
08:00 +26°C° 0 mm 1 mps 748 mmHg 67%
09:00 +27°C° 0 mm 1 mps 748 mmHg 61%
10:00 +28°C° 0 mm 1 mps 748 mmHg 56%
11:00 +29°C° 0 mm 2 mps 748 mmHg 50%
12:00 +30°C° 0 mm 2 mps 747 mmHg 48%
13:00 +30°C° 0 mm 2 mps 747 mmHg 46%
14:00 +31°C° 0 mm 2 mps 747 mmHg 43%
15:00 +30°C° 0 mm 2 mps 747 mmHg 47%
16:00 +30°C° 0 mm 2 mps 747 mmHg 51%
17:00 +30°C° 0 mm 2 mps 746 mmHg 54%
18:00 +27°C° 0 mm 2 mps 746 mmHg 63%
19:00 +25°C° 0 mm 2 mps 746 mmHg 72%
20:00 +23°C° 0 mm 2 mps 746 mmHg 81%
21:00 +21°C° 0 mm 2 mps 746 mmHg 82%
22:00 +20°C° 0 mm 2 mps 746 mmHg 84%
23:00 +19°C° 0 mm 2 mps 746 mmHg 85%

Tomorrow, 21 June, Monday

Time Temperature Precipitation Wind Pressure Humidity
00:00 +18°C° 0 mm 2 mps 746 mmHg 87%
01:00 +19°C° 0 mm 1 mps 746 mmHg 89%
02:00 +18°C° 0 mm 1 mps 746 mmHg 91%
03:00 +19°C° 0 mm 1 mps 746 mmHg 90%
04:00 +19°C° 0 mm 1 mps 746 mmHg 89%
05:00 +20°C° 0 mm 1 mps 747 mmHg 87%
06:00 +21°C° 0 mm 1 mps 747 mmHg 80%
07:00 +23°C° 0 mm 2 mps 747 mmHg 72%
08:00 +25°C° 0 mm 2 mps 747 mmHg 65%
09:00 +26°C° 0 mm 2 mps 747 mmHg 59%
10:00 +27°C° 0 mm 3 mps 746 mmHg 53%
11:00 +28°C° 0 mm 3 mps 746 mmHg 47%
12:00 +29°C° 0 mm 3 mps 746 mmHg 45%
13:00 +30°C° 0 mm 3 mps 746 mmHg 43%
14:00 +30°C° 0 mm 3 mps 746 mmHg 40%
15:00 +30°C° 0 mm 3 mps 746 mmHg 45%
16:00 +30°C° 0 mm 3 mps 746 mmHg 50%
17:00 +29°C° 0 mm 2 mps 745 mmHg 55%
18:00 +27°C° 0 mm 2 mps 745 mmHg 65%
19:00 +25°C° 0 mm 2 mps 745 mmHg 75%
20:00 +23°C° 0 mm 2 mps 745 mmHg 85%
21:00 +21°C° 0 mm 2 mps 745 mmHg 89%
22:00 +21°C° 0 mm 2 mps 745 mmHg 92%
23:00 +20°C° 0 mm 2 mps 745 mmHg 96%

Day after tomorrow, 22 June, Tuesday

Time Temperature Precipitation Wind Pressure Humidity
00:00 +19°C° 0 mm 2 mps 745 mmHg 96%
01:00 +19°C° 0 mm 2 mps 746 mmHg 96%
02:00 +19°C° 0 mm 2 mps 746 mmHg 97%
03:00 +19°C° 0 mm 2 mps 746 mmHg 96%
04:00 +19°C° 0 mm 2 mps 746 mmHg 95%
05:00 +20°C° 0 mm 2 mps 746 mmHg 93%
06:00 +23°C° 0 mm 2 mps 746 mmHg 83%
07:00 +25°C° 0 mm 3 mps 746 mmHg 73%
08:00 +27°C° 0 mm 3 mps 746 mmHg 63%
09:00 +28°C° 0 mm 3 mps 746 mmHg 56%
10:00 +30°C° 0 mm 3 mps 746 mmHg 48%
11:00 +33°C° 0 mm 4 mps 746 mmHg 41%
12:00 +33°C° 0 mm 4 mps 746 mmHg 40%
13:00 +34°C° 0 mm 4 mps 746 mmHg 38%
14:00 +34°C° 0 mm 4 mps 745 mmHg 37%
15:00 +34°C° 0 mm 4 mps 745 mmHg 42%
16:00 +33°C° 0 mm 4 mps 745 mmHg 46%
17:00 +31°C° 0 mm 3 mps 745 mmHg 51%
18:00 +29°C° 0 mm 3 mps 745 mmHg 62%
19:00 +27°C° 0 mm 3 mps 745 mmHg 72%
20:00 +25°C° 0 mm 2 mps 745 mmHg 83%
21:00 +24°C° 0 mm 2 mps 746 mmHg 87%
22:00 +23°C° 0 mm 2 mps 746 mmHg 91%
23:00 +21°C° 0 mm 2 mps 746 mmHg 95%

23 June, Wednesday

Time Temperature Precipitation Wind Pressure Humidity
00:00 +21°C° 0 mm 2 mps 746 mmHg 96%
01:00 +21°C° 0 mm 2 mps 746 mmHg 96%
02:00 +20°C° 0 mm 2 mps 746 mmHg 97%
03:00 +22°C° 0 mm 1 mps 746 mmHg 95%
04:00 +22°C° 0 mm 1 mps 746 mmHg 94%
05:00 +23°C° 0 mm 1 mps 746 mmHg 93%
06:00 +25°C° 0 mm 2 mps 746 mmHg 84%
07:00 +27°C° 0 mm 2 mps 747 mmHg 74%
08:00 +28°C° 0 mm 2 mps 747 mmHg 65%
09:00 +30°C° 0 mm 3 mps 747 mmHg 58%
10:00 +31°C° 0 mm 3 mps 747 mmHg 52%
11:00 +33°C° 0 mm 3 mps 747 mmHg 45%
12:00 +34°C° 0 mm 3 mps 747 mmHg 43%
13:00 +34°C° 0 mm 3 mps 746 mmHg 41%
14:00 +35°C° 0 mm 3 mps 746 mmHg 38%
15:00 +34°C° 0 mm 3 mps 746 mmHg 42%
16:00 +34°C° 0 mm 3 mps 746 mmHg 46%
17:00 +33°C° 0 mm 3 mps 746 mmHg 50%
18:00 +30°C° 0 mm 2 mps 746 mmHg 59%
19:00 +27°C° 0 mm 2 mps 746 mmHg 69%
20:00 +25°C° 0 mm 2 mps 746 mmHg 78%
21:00 +24°C° 0 mm 2 mps 746 mmHg 81%
22:00 +23°C° 0 mm 2 mps 746 mmHg 83%
23:00 +21°C° 0 mm 2 mps 746 mmHg 86%

24 June, Thursday

Time Temperature Precipitation Wind Pressure Humidity
00:00 +22°C° 0 mm 1 mps 746 mmHg 87%
01:00 +21°C° 0 mm 1 mps 746 mmHg 89%
02:00 +21°C° 0 mm 1 mps 746 mmHg 90%
03:00 +21°C° 0 mm 1 mps 746 mmHg 89%
04:00 +22°C° 0 mm 1 mps 747 mmHg 87%
05:00 +22°C° 0 mm 1 mps 747 mmHg 86%
06:00 +24°C° 0 mm 1 mps 747 mmHg 78%
07:00 +26°C° 0 mm 1 mps 747 mmHg 70%
08:00 +28°C° 0 mm 2 mps 747 mmHg 63%
09:00 +30°C° 0 mm 2 mps 747 mmHg 55%
10:00 +31°C° 0 mm 2 mps 746 mmHg 48%
11:00 +34°C° 0 mm 2 mps 746 mmHg 41%
12:00 +34°C° 0 mm 2 mps 746 mmHg 39%
13:00 +35°C° 0 mm 2 mps 746 mmHg 38%
14:00 +36°C° 0 mm 2 mps 746 mmHg 36%
15:00 +35°C° 0 mm 2 mps 746 mmHg 40%
16:00 +35°C° 0 mm 2 mps 745 mmHg 44%
17:00 +33°C° 0 mm 1 mps 745 mmHg 49%
18:00 +31°C° 0 mm 2 mps 745 mmHg 58%
19:00 +29°C° 0 mm 2 mps 745 mmHg 68%
20:00 +27°C° 0 mm 2 mps 744 mmHg 77%
21:00 +26°C° 0 mm 2 mps 744 mmHg 80%
22:00 +25°C° 0 mm 2 mps 744 mmHg 82%
23:00 +24°C° 0 mm 2 mps 744 mmHg 85%

25 June, Friday

Time Temperature Precipitation Wind Pressure Humidity
00:00 +24°C° 0 mm 2 mps 744 mmHg 85%
01:00 +23°C° 0 mm 2 mps 744 mmHg 86%
02:00 +23°C° 0 mm 2 mps 744 mmHg 86%
03:00 +23°C° 0 mm 2 mps 744 mmHg 85%
04:00 +23°C° 0 mm 1 mps 744 mmHg 85%
05:00 +24°C° 0 mm 1 mps 744 mmHg 84%
06:00 +26°C° 0 mm 1 mps 744 mmHg 77%
07:00 +28°C° 0 mm 2 mps 744 mmHg 70%
08:00 +29°C° 0 mm 2 mps 744 mmHg 62%
09:00 +31°C° 0 mm 2 mps 744 mmHg 55%
10:00 +33°C° 0 mm 3 mps 744 mmHg 47%
11:00 +35°C° 0 mm 3 mps 744 mmHg 40%
12:00 +35°C° 0 mm 3 mps 743 mmHg 38%
13:00 +35°C° 0 mm 3 mps 743 mmHg 36%
14:00 +36°C° 0 mm 3 mps 743 mmHg 34%
15:00 +34°C° 0.2 mm 4 mps 743 mmHg 40%
16:00 +33°C° 0.2 mm 5 mps 742 mmHg 47%
17:00 +30°C° 0.2 mm 5 mps 742 mmHg 54%
18:00 +27°C° 0.7 mm 4 mps 742 mmHg 66%
19:00 +24°C° 0.7 mm 3 mps 742 mmHg 78%
20:00 +20°C° 0.7 mm 2 mps 742 mmHg 90%
21:00 +20°C° 0.4 mm 2 mps 742 mmHg 92%
22:00 +19°C° 0.4 mm 2 mps 742 mmHg 93%
23:00 +20°C° 0.4 mm 1 mps 742 mmHg 95%
Show more